CW9540 Weather Reports


Display with metric or nautical units.
time (UTC)temp
F
wind
direction
speed
MPH
gust
MPH
rain 1hr
in
rain 24hr
in
rain mn
in
humidity
%
barometer
mb
20260506150503 46 37 1.0 2.0 0.01 0.69 0.49 93 1007.3
20260506150048 45 1 0.0 3.0 0.01 0.69 0.49 93 1008.4
20260506145504 46 14 1.0 3.0 0.01 0.69 0.49 93 1007.2
20260506145004 46 19 1.0 3.0 0.01 0.69 0.49 94 1007.0
20260506144553 45 53 1.0 3.0 0.01 0.69 0.49 93 1008.1
20260506144503 46 39 1.0 3.0 0.01 0.69 0.49 93 1007.0
20260506144004 46 8 1.0 2.0 0.01 0.69 0.49 93 1007.0
20260506143503 45 16 1.0 3.0 0.01 0.69 0.49 93 1006.9
20260506143049 45 314 1.0 4.0 0.01 0.69 0.49 92 1007.9
20260506143003 46 351 2.0 3.0 0.01 0.69 0.49 93 1007.0
20260506142504 46 72 1.0 2.0 0.02 0.69 0.49 94 1006.8
20260506142004 46 8 2.0 3.0 0.02 0.69 0.49 94 1006.8
20260506141550 45 314 0.0 2.0 0.02 0.69 0.49 93 1007.9
20260506141503 46 357 1.0 2.0 0.02 0.69 0.49 94 1006.8
20260506141004 46 17 1.0 2.0 0.02 0.69 0.49 94 1006.7
20260506140049 45 56 0.0 3.0 0.01 0.68 0.48 93 1007.7
20260506135003 45 47 2.0 3.0 0.01 0.68 0.48 94 1006.8
20260506134545 45 340 1.0 3.0 0.01 0.68 0.48 93 1008.0
20260506134504 45 67 1.0 3.0 0.01 0.68 0.48 94 1006.9
20260506134004 45 15 1.0 3.0 0.01 0.68 0.48 93 1006.9
20260506133503 45 10 1.0 2.0 0.01 0.68 0.48 94 1006.9
20260506133105 45 0 1.0 2.0 0.01 0.68 0.48 93 1007.9
20260506133003 45 10 1.0 2.0 0.01 0.68 0.48 94 1006.8
20260506132004 45 83 1.0 2.0 0.00 0.67 0.47 94 1006.7
20260506131547 45 269 0.0 3.0 0.01 0.67 0.47 93 1007.8
20260506131503 45 316 1.0 2.0 0.01 0.67 0.47 94 1006.6
20260506131004 45 285 1.0 3.0 0.01 0.67 0.47 94 1006.5
20260506130503 45 56 1.0 3.0 0.01 0.67 0.47 94 1006.6
20260506130105 45 89 0.0 2.0 0.02 0.67 0.47 94 1007.7
20260506130003 45 67 1.0 2.0 0.02 0.67 0.47 94 1006.6
20260506125504 45 354 0.0 2.0 0.02 0.67 0.47 94 1006.5
20260506125004 45 39 1.0 2.0 0.02 0.67 0.47 94 1006.5
20260506124552 44 1 1.0 4.0 0.02 0.67 0.47 94 1007.7
20260506124503 45 62 1.0 3.0 0.02 0.67 0.47 94 1006.5
20260506124004 45 57 1.0 2.0 0.02 0.67 0.47 94 1006.7
20260506123504 45 7 1.0 2.0 0.02 0.67 0.47 94 1006.8
20260506123049 45 46 0.0 2.0 0.02 0.67 0.47 93 1007.9
20260506123003 45 23 1.0 2.0 0.02 0.67 0.47 94 1006.8
20260506122504 45 51 0.0 2.0 0.03 0.67 0.47 94 1006.7
20260506122004 45 36 1.0 2.0 0.03 0.67 0.47 94 1006.6
20260506121547 45 306 1.0 3.0 0.02 0.66 0.46 94 1007.7
20260506121504 45 50 1.0 3.0 0.02 0.66 0.46 94 1006.7
20260506121003 45 14 1.0 3.0 0.02 0.66 0.46 94 1006.8
20260506120503 45 55 1.0 2.0 0.02 0.66 0.46 94 1006.7
20260506120052 44 117 0.0 2.0 0.01 0.65 0.45 94 1008.0
20260506120004 45 41 1.0 2.0 0.02 0.65 0.45 94 1006.9
20260506115505 45 27 1.0 2.0 0.02 0.65 0.45 94 1006.8
20260506115003 45 323 1.0 2.0 0.02 0.65 0.45 94 1006.8
20260506114551 44 20 0.0 3.0 0.02 0.65 0.45 94 1007.8
20260506114503 45 1 1.0 2.0 0.02 0.65 0.45 94 1006.7
20260506114003 45 61 1.0 2.0 0.02 0.65 0.45 94 1006.7
20260506113048 44 1 1.0 7.0 0.03 0.65 0.45 93 1007.5
20260506113004 45 44 2.0 7.0 0.03 0.65 0.45 94 1006.3
20260506112504 45 23 1.0 3.0 0.02 0.64 0.44 94 1006.3
20260506112003 45 38 1.0 3.0 0.03 0.64 0.44 94 1006.3
20260506111551 44 72 0.0 3.0 0.03 0.64 0.44 94 1007.4
20260506111503 45 20 1.0 3.0 0.03 0.64 0.44 94 1006.2
20260506111004 45 77 1.0 2.0 0.04 0.64 0.44 94 1006.3
20260506110052 45 9 2.0 4.0 0.05 0.64 0.44 93 1007.5
20260506110003 45 35 2.0 3.0 0.04 0.63 0.43 94 1006.2
20260506105503 45 69 1.0 2.0 0.04 0.63 0.43 94 1006.2
20260506105003 45 40 1.0 3.0 0.04 0.63 0.43 94 1006.3
20260506104610 45 51 0.0 2.0 0.05 0.63 0.43 94 1007.6
20260506104504 45 38 1.0 2.0 0.05 0.63 0.43 94 1006.5
20260506104004 45 61 1.0 2.0 0.06 0.63 0.43 94 1006.5
20260506103503 45 79 1.0 2.0 0.05 0.62 0.42 94 1006.5
20260506103043 45 46 0.0 4.0 0.05 0.62 0.42 94 1007.8
20260506103003 45 29 1.0 3.0 0.06 0.62 0.42 94 1006.5
20260506102004 46 66 1.0 2.0 0.05 0.61 0.41 94 1006.5
20260506101550 45 35 1.0 2.0 0.05 0.61 0.41 94 1007.9
20260506101004 46 61 1.0 2.0 0.05 0.60 0.40 94 1006.7
20260506100504 46 295 1.0 3.0 0.05 0.60 0.40 94 1006.8
20260506100045 45 0 0.0 3.0 0.04 0.58 0.39 94 1007.7
20260506100004 46 17 1.0 2.0 0.04 0.59 0.39 94 1006.4
20260506095004 46 349 2.0 3.0 0.04 0.59 0.39 94 1006.5
20260506094547 45 340 1.0 2.0 0.03 0.58 0.38 94 1007.6
20260506094503 46 28 1.0 2.0 0.03 0.58 0.38 94 1006.4
20260506094004 46 352 1.0 2.0 0.03 0.57 0.37 94 1006.6
20260506093504 46 27 0.0 1.0 0.04 0.57 0.37 94 1006.5
20260506093046 45 46 0.0 2.0 0.04 0.57 0.37 93 1007.6
20260506093004 46 347 1.0 2.0 0.03 0.56 0.36 94 1006.3
20260506092504 46 30 1.0 2.0 0.04 0.56 0.36 94 1006.4
20260506092004 46 50 2.0 3.0 0.04 0.56 0.36 94 1006.4
20260506091544 46 0 0.0 3.0 0.04 0.56 0.36 94 1007.6
20260506091503 46 29 1.0 3.0 0.05 0.56 0.36 94 1006.3
20260506091004 46 46 1.0 2.0 0.04 0.55 0.35 94 1006.1
20260506090504 46 51 1.0 2.0 0.05 0.55 0.35 94 1006.0
20260506090046 46 46 1.0 3.0 0.05 0.55 0.35 94 1007.3
20260506085504 46 41 1.0 3.0 0.06 0.55 0.35 94 1006.2
20260506085004 46 54 1.0 3.0 0.07 0.55 0.35 94 1006.3
20260506084550 46 59 1.0 3.0 0.08 0.55 0.35 94 1007.6
20260506084503 46 50 1.0 3.0 0.08 0.55 0.35 94 1006.4
20260506084004 46 40 1.0 2.0 0.07 0.54 0.34 94 1006.8
20260506083503 46 21 1.0 3.0 0.07 0.53 0.33 94 1006.6
20260506083051 46 32 1.0 3.0 0.08 0.52 0.33 94 1007.8
20260506083004 47 7 2.0 3.0 0.08 0.53 0.33 94 1006.5
20260506082504 47 11 1.0 2.0 0.07 0.52 0.32 94 1006.4
20260506082003 47 39 1.0 3.0 0.08 0.52 0.32 94 1006.2
20260506081557 46 59 1.0 3.0 0.08 0.51 0.31 93 1007.6
20260506081504 47 50 1.0 3.0 0.08 0.51 0.31 94 1006.4
20260506081003 47 75 1.0 3.0 0.08 0.51 0.31 94 1006.6
20260506073503 47 189 1.0 2.0 0.09 0.46 0.26 94 1006.6
20260506073229 47 0 1.0 2.0 0.08 0.45 0.25 93 1007.8
20260506072004 47 348 2.0 3.0 0.10 0.44 0.24 94 1006.5
20260506071554 47 46 1.0 4.0 0.09 0.43 0.23 93 1007.6
20260506061548 48 41 1.0 3.0 0.07 0.34 0.14 93 1008.0
20260506044603 48 56 0.0 4.0 0.04 0.23 0.03 93 1008.6
20260506043056 48 98 1.0 5.0 0.05 0.22 0.02 93 1008.5
20260506041550 48 328 0.0 3.0 0.04 0.21 0.01 92 1008.3
20260506040052 48 89 0.0 2.0 0.04 0.20 0.00 93 1008.2
20260506034544 48 68 1.0 2.0 0.03 0.19 0.19 92 1008.6
20260506033044 48 72 0.0 2.0 0.02 0.17 0.17 92 1009.0
20260506031555 48 124 0.0 4.0 0.02 0.17 0.17 92 1009.0
20260506030050 48 135 0.0 2.0 0.01 0.16 0.16 92 1008.8
20260506024551 48 70 0.0 3.0 0.03 0.16 0.16 92 1008.9
20260506023047 49 59 0.0 3.0 0.03 0.15 0.15 91 1009.0
20260506021553 49 0 0.0 3.0 0.03 0.15 0.15 91 1009.4
20260506020048 49 0 0.0 2.0 0.04 0.15 0.15 91 1009.3
20260506014550 49 28 0.0 2.0 0.02 0.13 0.13 91 1009.1
20260506013052 49 0 0.0 2.0 0.01 0.12 0.12 91 1009.2
20260506011553 49 63 0.0 2.0 0.02 0.12 0.12 90 1008.9
20260506010054 49 46 0.0 2.0 0.02 0.11 0.11 90 1008.6
20260506004549 49 0 0.0 2.0 0.02 0.11 0.11 90 1008.2
20260506003057 49 0 0.0 1.0 0.03 0.11 0.11 89 1008.3
20260506001604 49 0 0.0 1.0 0.04 0.10 0.10 89 1008.1
20260506000046 50 0 0.0 2.0 0.04 0.09 0.09 88 1008.2
20260505234609 50 46 0.0 2.0 0.07 0.09 0.09 87 1008.2
20260505233051 50 0 0.0 2.0 0.08 0.08 0.08 87 1008.2
20260505231553 51 1 0.0 2.0 0.06 0.06 0.06 86 1008.3
20260505230051 51 314 1.0 2.0 0.05 0.05 0.05 82 1007.8
20260505224551 53 269 1.0 7.0 0.02 0.02 0.02 77 1008.0
20260505223103 55 318 2.0 5.0 0.00 0.00 0.00 69 1007.6
20260505221553 56 327 5.0 12.0 0.00 0.00 0.00 66 1007.5
20260505220051 61 351 4.0 10.0 0.00 0.00 0.00 61 1006.5
20260505214558 64 324 4.0 19.0 0.00 0.00 0.00 64 1005.8
20260505213054 66 220 5.0 22.0 0.00 0.00 0.00 62 1005.4
20260505211601 66 269 5.0 19.0 0.00 0.00 0.00 61 1004.9
20260505210051 68 164 6.0 21.0 0.00 0.00 0.00 58 1004.9
20260505204549 68 241 5.0 21.0 0.00 0.00 0.00 58 1004.8
20260505203114 68 212 3.0 9.0 0.00 0.00 0.00 59 1004.6
20260505201552 68 245 3.0 14.0 0.00 0.00 0.00 59 1004.3
20260505200048 68 264 7.0 16.0 0.00 0.00 0.00 60 1004.5
20260505194552 68 223 6.0 16.0 0.00 0.00 0.00 59 1004.5
20260505193047 68 248 8.0 17.0 0.00 0.00 0.00 59 1004.2
20260505193004 68 240 8.0 17.0 0.00 0.00 0.00 60 1002.7
20260505191555 68 243 2.0 15.0 0.00 0.00 0.00 59 1004.4
20260505190053 69 349 4.0 14.0 0.00 0.00 0.00 58 1004.2
20260505184555 71 290 3.0 12.0 0.00 0.00 0.00 53 1003.8
20260505183048 72 215 8.0 18.0 0.00 0.00 0.00 52 1003.5
20260505181548 72 231 6.0 20.0 0.00 0.00 0.00 52 1003.5
20260505180058 71 221 6.0 17.0 0.00 0.00 0.00 53 1003.7
20260505174556 72 246 8.0 19.0 0.00 0.00 0.00 52 1003.6
20260505173053 71 252 6.0 19.0 0.00 0.00 0.00 54 1003.3
20260505171550 69 243 6.0 14.0 0.00 0.00 0.00 56 1003.1
20260505170048 67 220 6.0 14.0 0.00 0.00 0.00 59 1003.6
20260505164551 69 223 4.0 14.0 0.00 0.00 0.00 56 1003.5
20260505163051 70 257 4.0 12.0 0.00 0.00 0.00 54 1003.3
20260505161551 71 303 3.0 9.0 0.00 0.00 0.00 53 1002.9
20260505153051 73 248 5.0 16.0 0.00 0.00 0.00 52 1001.9
20260505151549 73 238 8.0 15.0 0.00 0.00 0.00 50 1002.0